This is the latest recevied weather packets stored in our database for station/object N4DWK. If no packets are shown the sender has not sent any weather packets the latest 10 day(s).
| Time | Temp. | Humidity | Pressure | Rain* | Wind** | Luminosity | Snow |
|---|---|---|---|---|---|---|---|
| 1788388806 | 29.44° C | 82% | 1016.8 hPa | 0 mm | - | 5 W/m² | - |
| 1788388506 | 29.44° C | 81% | 1016.9 hPa | 0 mm | - | 5 W/m² | - |
| 1788388206 | 29.44° C | 81% | 1017.1 hPa | 0 mm | - | 7 W/m² | - |
| 1788387906 | 30° C | 80% | 1017.2 hPa | 0 mm | - | 9 W/m² | - |
| 1788387606 | 30° C | 79% | 1017.4 hPa | 0 mm | - | 12 W/m² | - |
| 1788387306 | 30.56° C | 78% | 1017.1 hPa | 0 mm | - | 16 W/m² | - |
| 1788387008 | 30.56° C | 76% | 1017 hPa | 0 mm | - | 18 W/m² | - |
| 1788386707 | 30.56° C | 75% | 1017 hPa | 0 mm | - | 18 W/m² | - |
| 1788386406 | 31.11° C | 74% | 1016.8 hPa | 0 mm | - | 18 W/m² | - |
| 1788386107 | 31.11° C | 71% | 1016.9 hPa | 0 mm | - | 18 W/m² | - |
| 1788385806 | 31.67° C | 68% | 1017 hPa | 0 mm | - | 18 W/m² | - |
| 1788385506 | 31.67° C | 66% | 1017 hPa | 0 mm | - | 18 W/m² | - |
| 1788385206 | 32.22° C | 64% | 1016.9 hPa | 0 mm | - | 21 W/m² | - |
| 1788384906 | 32.22° C | 66% | 1016.7 hPa | 0 mm | - | 109 W/m² | - |
| 1788384606 | 31.67° C | 66% | 1016.8 hPa | 0 mm | - | 232 W/m² | - |
| 1788384306 | 32.22° C | 63% | 1017 hPa | 0 mm | - | 237 W/m² | - |
| 1788384006 | 32.22° C | 66% | 1017 hPa | 0 mm | - | 250 W/m² | - |
| 1788383706 | 31.67° C | 70% | 1016.6 hPa | 0 mm | - | 264 W/m² | - |
| 1788383407 | 31.11° C | 69% | 1016.7 hPa | 0 mm | - | 271 W/m² | - |
| 1788383106 | 31.67° C | 71% | 1016.8 hPa | 0 mm | - | 283 W/m² | - |
| 1788382807 | 31.67° C | 70% | 1016.7 hPa | 0 mm | - | 301 W/m² | - |
| 1788382506 | 32.78° C | 68% | 1016.8 hPa | 0 mm | - | 49 W/m² | - |
| 1788382207 | 33.33° C | 66% | 1016.9 hPa | 0 mm | - | 65 W/m² | - |
| 1788381906 | 34.44° C | 62% | 1016.7 hPa | 0 mm | - | 76 W/m² | - |
| 1788381607 | 35.56° C | 60% | 1016.6 hPa | 0 mm | - | 113 W/m² | - |
* Rain latest hour (hover to see other rain measurements)
** Current wind speed in m/s (hover to see current wind gust speed)